| time (UTC) | temp F | wind direction | speed MPH | gust MPH | rain 1hr in | rain 24hr in | rain mn in | humidity % | barometer mb |
| 20260507180558 | 55 | 146 | 6.0 | 6.0 | 0.00 | 0.00 | 0.00 | 59 | 1019.2 |
| 20260507180054 | 56 | 135 | 3.0 | 5.0 | 0.00 | 0.00 | 0.00 | 59 | 1019.1 |
| 20260507175553 | 56 | 135 | 5.0 | 7.0 | 0.00 | 0.00 | 0.00 | 59 | 1019.2 |
| 20260507175050 | 56 | 157 | 4.0 | 6.0 | 0.00 | 0.00 | 0.00 | 58 | 1019.2 |
| 20260507174551 | 56 | 146 | 5.0 | 6.0 | 0.00 | 0.00 | 0.00 | 58 | 1019.1 |
| 20260507174045 | 56 | 135 | 4.0 | 8.0 | 0.00 | 0.00 | 0.00 | 58 | 1019.0 |
| 20260507173542 | 56 | 157 | 6.0 | 6.0 | 0.00 | 0.00 | 0.00 | 58 | 1019.1 |
| 20260507173040 | 56 | 180 | 3.0 | 4.0 | 0.00 | 0.00 | 0.00 | 58 | 1019.0 |
| 20260507172538 | 57 | 146 | 3.0 | 5.0 | 0.00 | 0.00 | 0.00 | 57 | 1019.0 |
| 20260507172036 | 57 | 180 | 3.0 | 4.0 | 0.00 | 0.00 | 0.00 | 57 | 1019.0 |
| 20260507171534 | 57 | 180 | 2.0 | 4.0 | 0.00 | 0.00 | 0.00 | 57 | 1019.1 |
| 20260507171031 | 57 | 135 | 4.0 | 5.0 | 0.00 | 0.00 | 0.00 | 57 | 1019.2 |
| 20260507170529 | 57 | 157 | 2.0 | 6.0 | 0.00 | 0.00 | 0.00 | 57 | 1019.2 |
| 20260507170027 | 58 | 168 | 2.0 | 7.0 | 0.00 | 0.00 | 0.00 | 57 | 1019.2 |
| 20260507165525 | 58 | 180 | 5.0 | 8.0 | 0.00 | 0.00 | 0.00 | 57 | 1019.1 |
| 20260507165022 | 58 | 146 | 8.0 | 10.0 | 0.00 | 0.00 | 0.00 | 57 | 1019.0 |
| 20260507164519 | 58 | 157 | 10.0 | 11.0 | 0.00 | 0.00 | 0.00 | 57 | 1019.0 |
| 20260507164017 | 58 | 180 | 8.0 | 10.0 | 0.00 | 0.00 | 0.00 | 57 | 1019.0 |
| 20260507163515 | 58 | 135 | 8.0 | 10.0 | 0.00 | 0.00 | 0.00 | 57 | 1019.0 |
| 20260507163014 | 58 | 168 | 6.0 | 9.0 | 0.00 | 0.00 | 0.00 | 58 | 1019.1 |
| 20260507162511 | 58 | 157 | 7.0 | 9.0 | 0.00 | 0.00 | 0.00 | 58 | 1019.0 |
| 20260507162009 | 58 | 135 | 6.0 | 9.0 | 0.00 | 0.00 | 0.00 | 58 | 1019.0 |
| 20260507161506 | 58 | 180 | 6.0 | 8.0 | 0.00 | 0.00 | 0.00 | 58 | 1019.1 |
| 20260507161004 | 58 | 157 | 7.0 | 9.0 | 0.00 | 0.00 | 0.00 | 58 | 1019.0 |
| 20260507160502 | 58 | 157 | 9.0 | 10.0 | 0.00 | 0.00 | 0.00 | 58 | 1019.0 |
| 20260507155959 | 58 | 157 | 10.0 | 11.0 | 0.00 | 0.00 | 0.00 | 58 | 1019.0 |
| 20260507155457 | 58 | 135 | 8.0 | 9.0 | 0.00 | 0.00 | 0.00 | 59 | 1019.0 |
| 20260507154954 | 58 | 146 | 8.0 | 9.0 | 0.00 | 0.00 | 0.00 | 59 | 1019.0 |
| 20260507154454 | 59 | 157 | 7.0 | 8.0 | 0.00 | 0.00 | 0.00 | 59 | 1019.0 |
| 20260507153950 | 59 | 157 | 7.0 | 9.0 | 0.00 | 0.00 | 0.00 | 59 | 1018.9 |
| 20260507153448 | 59 | 135 | 6.0 | 8.0 | 0.00 | 0.00 | 0.00 | 59 | 1018.9 |
| 20260507152946 | 59 | 157 | 6.0 | 8.0 | 0.00 | 0.00 | 0.00 | 59 | 1018.9 |
| 20260507152443 | 59 | 146 | 4.0 | 10.0 | 0.00 | 0.00 | 0.00 | 59 | 1019.0 |
| 20260507151941 | 59 | 180 | 5.0 | 9.0 | 0.00 | 0.00 | 0.00 | 59 | 1019.1 |
| 20260507151439 | 59 | 168 | 7.0 | 9.0 | 0.00 | 0.00 | 0.00 | 59 | 1019.0 |
| 20260507150940 | 60 | 157 | 7.0 | 8.0 | 0.00 | 0.00 | 0.00 | 59 | 1018.9 |
| 20260507150435 | 60 | 157 | 4.0 | 8.0 | 0.00 | 0.00 | 0.00 | 59 | 1019.0 |
| 20260507145932 | 60 | 135 | 6.0 | 8.0 | 0.00 | 0.00 | 0.00 | 59 | 1018.9 |
| 20260507145429 | 60 | 157 | 6.0 | 8.0 | 0.00 | 0.00 | 0.00 | 59 | 1019.0 |
| 20260507144930 | 60 | 168 | 5.0 | 10.0 | 0.00 | 0.00 | 0.00 | 59 | 1018.9 |
| 20260507144426 | 60 | 135 | 8.0 | 10.0 | 0.00 | 0.00 | 0.00 | 59 | 1018.8 |
| 20260507143923 | 60 | 135 | 8.0 | 10.0 | 0.00 | 0.00 | 0.00 | 59 | 1018.8 |
| 20260507143421 | 60 | 157 | 8.0 | 12.0 | 0.00 | 0.00 | 0.00 | 59 | 1018.8 |
| 20260507142918 | 60 | 135 | 7.0 | 11.0 | 0.00 | 0.00 | 0.00 | 59 | 1018.8 |
| 20260507142416 | 60 | 135 | 7.0 | 9.0 | 0.00 | 0.00 | 0.00 | 60 | 1018.9 |
| 20260507141913 | 61 | 135 | 8.0 | 8.0 | 0.00 | 0.00 | 0.00 | 60 | 1018.9 |
| 20260507141411 | 61 | 157 | 10.0 | 10.0 | 0.00 | 0.00 | 0.00 | 60 | 1018.9 |
| 20260507140910 | 61 | 168 | 7.0 | 9.0 | 0.00 | 0.00 | 0.00 | 60 | 1018.9 |
| 20260507140408 | 61 | 146 | 8.0 | 10.0 | 0.00 | 0.00 | 0.00 | 60 | 1018.9 |
| 20260507135905 | 61 | 135 | 7.0 | 9.0 | 0.00 | 0.00 | 0.00 | 61 | 1018.9 |
| 20260507135402 | 61 | 180 | 9.0 | 9.0 | 0.00 | 0.00 | 0.00 | 61 | 1018.9 |
| 20260507134902 | 61 | 135 | 10.0 | 10.0 | 0.00 | 0.00 | 0.00 | 61 | 1019.0 |
| 20260507134358 | 61 | 168 | 9.0 | 10.0 | 0.00 | 0.00 | 0.00 | 62 | 1019.2 |
| 20260507133855 | 61 | 135 | 6.0 | 9.0 | 0.00 | 0.00 | 0.00 | 63 | 1019.0 |
| 20260507133353 | 61 | 157 | 5.0 | 7.0 | 0.00 | 0.00 | 0.00 | 63 | 1019.2 |
| 20260507132851 | 61 | 135 | 6.0 | 7.0 | 0.00 | 0.00 | 0.00 | 63 | 1019.1 |
| 20260507132348 | 62 | 157 | 4.0 | 7.0 | 0.00 | 0.00 | 0.00 | 62 | 1019.1 |
| 20260507131846 | 62 | 135 | 6.0 | 8.0 | 0.00 | 0.00 | 0.00 | 62 | 1019.2 |
| 20260507131343 | 62 | 135 | 5.0 | 7.0 | 0.00 | 0.00 | 0.00 | 62 | 1019.1 |
| 20260507130841 | 62 | 180 | 5.0 | 7.0 | 0.00 | 0.00 | 0.00 | 62 | 1019.2 |
| 20260507130339 | 62 | 135 | 4.0 | 6.0 | 0.00 | 0.00 | 0.00 | 62 | 1019.1 |
| 20260507125837 | 62 | 135 | 5.0 | 6.0 | 0.00 | 0.00 | 0.00 | 62 | 1019.1 |
| 20260507125335 | 62 | 135 | 4.0 | 6.0 | 0.00 | 0.00 | 0.00 | 62 | 1019.1 |
| 20260507124833 | 62 | 180 | 5.0 | 6.0 | 0.00 | 0.00 | 0.00 | 62 | 1019.1 |
| 20260507124330 | 62 | 180 | 6.0 | 7.0 | 0.00 | 0.00 | 0.00 | 62 | 1019.1 |
| 20260507123828 | 62 | 157 | 3.0 | 5.0 | 0.00 | 0.00 | 0.00 | 63 | 1019.2 |
| 20260507123325 | 62 | 180 | 6.0 | 6.0 | 0.00 | 0.00 | 0.00 | 63 | 1019.2 |
| 20260507122826 | 63 | 157 | 3.0 | 5.0 | 0.00 | 0.00 | 0.00 | 63 | 1019.3 |
| 20260507122321 | 63 | 135 | 4.0 | 4.0 | 0.00 | 0.00 | 0.00 | 63 | 1019.2 |
| 20260507121818 | 63 | 157 | 4.0 | 4.0 | 0.00 | 0.00 | 0.00 | 63 | 1019.3 |
| 20260507121316 | 63 | 180 | 3.0 | 5.0 | 0.00 | 0.00 | 0.00 | 62 | 1019.5 |
| 20260507120816 | 63 | 157 | 4.0 | 5.0 | 0.00 | 0.00 | 0.00 | 63 | 1019.6 |
| 20260507120312 | 63 | 191 | 3.0 | 4.0 | 0.00 | 0.00 | 0.00 | 63 | 1019.6 |
| 20260507115810 | 63 | 180 | 3.0 | 3.0 | 0.00 | 0.00 | 0.00 | 62 | 1019.5 |
| 20260507115307 | 63 | 180 | 3.0 | 3.0 | 0.00 | 0.00 | 0.00 | 62 | 1019.4 |
| 20260507114805 | 64 | 180 | 2.0 | 3.0 | 0.00 | 0.00 | 0.00 | 62 | 1019.4 |
| 20260507114302 | 64 | 157 | 2.0 | 3.0 | 0.00 | 0.00 | 0.00 | 62 | 1019.4 |
| 20260507113800 | 64 | 168 | 3.0 | 3.0 | 0.00 | 0.00 | 0.00 | 62 | 1019.3 |
| 20260507113258 | 64 | 180 | 1.0 | 3.0 | 0.00 | 0.00 | 0.00 | 62 | 1019.3 |
| 20260507112755 | 64 | 180 | 2.0 | 3.0 | 0.00 | 0.00 | 0.00 | 62 | 1019.4 |
| 20260507112253 | 64 | 157 | 1.0 | 3.0 | 0.00 | 0.00 | 0.00 | 62 | 1019.3 |
| 20260507111751 | 65 | 180 | 2.0 | 4.0 | 0.00 | 0.00 | 0.00 | 61 | 1019.4 |
| 20260507111249 | 65 | 180 | 2.0 | 3.0 | 0.00 | 0.00 | 0.00 | 61 | 1019.4 |
| 20260507110747 | 65 | 180 | 2.0 | 3.0 | 0.00 | 0.00 | 0.00 | 61 | 1019.4 |
| 20260507110245 | 65 | 180 | 1.0 | 3.0 | 0.00 | 0.00 | 0.00 | 61 | 1019.3 |
| 20260507105742 | 66 | 180 | 2.0 | 3.0 | 0.00 | 0.00 | 0.00 | 61 | 1019.4 |
| 20260507105239 | 66 | 180 | 2.0 | 2.0 | 0.00 | 0.00 | 0.00 | 60 | 1019.2 |
| 20260507104738 | 66 | 180 | 2.0 | 2.0 | 0.00 | 0.00 | 0.00 | 60 | 1019.2 |
| 20260507104235 | 66 | 180 | 2.0 | 2.0 | 0.00 | 0.00 | 0.00 | 60 | 1019.2 |
| 20260507103733 | 67 | 157 | 2.0 | 3.0 | 0.00 | 0.00 | 0.00 | 60 | 1019.2 |
| 20260507103230 | 67 | 180 | 2.0 | 3.0 | 0.00 | 0.00 | 0.00 | 59 | 1019.1 |
| 20260507102728 | 67 | 180 | 2.0 | 2.0 | 0.00 | 0.00 | 0.00 | 59 | 1019.0 |
| 20260507101726 | 68 | 180 | 2.0 | 3.0 | 0.00 | 0.00 | 0.00 | 59 | 1018.9 |
| 20260507101222 | 68 | 180 | 3.0 | 3.0 | 0.00 | 0.00 | 0.00 | 59 | 1018.9 |
| 20260507100719 | 68 | 180 | 2.0 | 2.0 | 0.00 | 0.00 | 0.00 | 59 | 1018.9 |
| 20260507100216 | 68 | 135 | 2.0 | 2.0 | 0.00 | 0.00 | 0.00 | 59 | 1018.8 |
| 20260507095714 | 69 | 180 | 2.0 | 3.0 | 0.00 | 0.00 | 0.00 | 59 | 1018.8 |
| 20260507095212 | 69 | 157 | 2.0 | 3.0 | 0.00 | 0.00 | 0.00 | 59 | 1018.7 |
| 20260507094710 | 69 | 180 | 3.0 | 4.0 | 0.00 | 0.00 | 0.00 | 59 | 1018.7 |
| 20260507094229 | 69 | 180 | 2.0 | 4.0 | 0.00 | 0.00 | 0.00 | 59 | 1018.7 |
| 20260507093705 | 69 | 157 | 2.0 | 5.0 | 0.00 | 0.00 | 0.00 | 59 | 1018.6 |
| 20260507093203 | 69 | 180 | 3.0 | 5.0 | 0.00 | 0.00 | 0.00 | 59 | 1018.6 |
| 20260507092701 | 69 | 180 | 3.0 | 4.0 | 0.00 | 0.00 | 0.00 | 59 | 1018.6 |
| 20260507092159 | 70 | 180 | 4.0 | 6.0 | 0.00 | 0.00 | 0.00 | 59 | 1018.6 |
| 20260507091656 | 70 | 135 | 5.0 | 5.0 | 0.00 | 0.00 | 0.00 | 60 | 1018.5 |
| 20260507091156 | 70 | 180 | 4.0 | 5.0 | 0.00 | 0.00 | 0.00 | 61 | 1018.5 |
| 20260507090651 | 70 | 157 | 4.0 | 5.0 | 0.00 | 0.00 | 0.00 | 62 | 1018.5 |
| 20260507090149 | 70 | 135 | 2.0 | 3.0 | 0.00 | 0.00 | 0.00 | 64 | 1018.6 |
| 20260507085647 | 70 | 180 | 1.0 | 1.0 | 0.00 | 0.00 | 0.00 | 65 | 1018.5 |
| 20260507085145 | 70 | 168 | 3.0 | 3.0 | 0.00 | 0.00 | 0.00 | 66 | 1018.6 |
| 20260507084642 | 70 | 202 | 2.0 | 3.0 | 0.00 | 0.00 | 0.00 | 67 | 1018.6 |
| 20260507084142 | 70 | 180 | 3.0 | 3.0 | 0.00 | 0.00 | 0.00 | 66 | 1018.5 |
| 20260507083638 | 70 | 135 | 2.0 | 3.0 | 0.00 | 0.00 | 0.00 | 66 | 1018.5 |
| 20260507083137 | 70 | 157 | 1.0 | 4.0 | 0.00 | 0.00 | 0.00 | 66 | 1018.5 |
| 20260507082633 | 70 | 135 | 4.0 | 4.0 | 0.00 | 0.00 | 0.00 | 65 | 1018.5 |
| 20260507082130 | 71 | 202 | 1.0 | 2.0 | 0.00 | 0.00 | 0.00 | 65 | 1018.5 |
| 20260507081631 | 71 | 202 | 2.0 | 2.0 | 0.00 | 0.00 | 0.00 | 64 | 1018.3 |
| 20260507081126 | 71 | 225 | 1.0 | 2.0 | 0.00 | 0.00 | 0.00 | 64 | 1018.4 |
| 20260507080624 | 71 | 225 | 0.0 | 3.0 | 0.00 | 0.00 | 0.00 | 63 | 1018.4 |
| 20260507080122 | 71 | 191 | 1.0 | 3.0 | 0.00 | 0.00 | 0.00 | 62 | 1018.3 |
| 20260507075620 | 71 | 236 | 2.0 | 4.0 | 0.00 | 0.00 | 0.00 | 61 | 1018.2 |
| 20260507075117 | 72 | 292 | 2.0 | 4.0 | 0.00 | 0.00 | 0.00 | 59 | 1018.0 |
| 20260507074617 | 72 | 270 | 0.0 | 1.0 | 0.00 | 0.00 | 0.00 | 56 | 1017.7 |
| 20260507074113 | 72 | 225 | 0.0 | 3.0 | 0.00 | 0.00 | 0.00 | 56 | 1017.6 |
| 20260507073610 | 72 | 213 | 1.0 | 3.0 | 0.00 | 0.00 | 0.00 | 55 | 1017.4 |
| 20260507073109 | 72 | 225 | 1.0 | 3.0 | 0.00 | 0.00 | 0.00 | 55 | 1017.4 |
| 20260507072605 | 72 | 213 | 1.0 | 2.0 | 0.00 | 0.00 | 0.00 | 55 | 1017.4 |
| 20260507072103 | 72 | 157 | 2.0 | 4.0 | 0.00 | 0.00 | 0.00 | 55 | 1017.3 |
| 20260507071601 | 72 | 180 | 2.0 | 5.0 | 0.00 | 0.00 | 0.00 | 54 | 1017.1 |
| 20260507071059 | 73 | 202 | 3.0 | 5.0 | 0.00 | 0.00 | 0.00 | 54 | 1017.2 |
| 20260507070557 | 73 | 180 | 0.0 | 0.0 | 0.00 | 0.00 | 0.00 | 54 | 1017.0 |
| 20260507070054 | 73 | 225 | 0.0 | 0.0 | 0.00 | 0.00 | 0.00 | 54 | 1017.1 |
| 20260507065554 | 73 | 202 | 0.0 | 0.0 | 0.00 | 0.00 | 0.00 | 53 | 1017.0 |
| 20260507065050 | 73 | 202 | 0.0 | 0.0 | 0.00 | 0.00 | 0.00 | 53 | 1017.0 |
| 20260507064547 | 73 | 225 | 6.0 | 7.0 | 0.00 | 0.00 | 0.00 | 53 | 1016.8 |
| 20260507064045 | 74 | 157 | 4.0 | 8.0 | 0.00 | 0.00 | 0.00 | 53 | 1016.7 |
| 20260507063543 | 74 | 180 | 3.0 | 7.0 | 0.00 | 0.00 | 0.00 | 53 | 1016.7 |
| 20260507063040 | 74 | 225 | 4.0 | 7.0 | 0.00 | 0.00 | 0.00 | 53 | 1016.6 |
| 20260507062538 | 74 | 180 | 7.0 | 9.0 | 0.00 | 0.00 | 0.00 | 53 | 1016.8 |
| 20260507062036 | 74 | 180 | 2.0 | 9.0 | 0.00 | 0.00 | 0.00 | 52 | 1016.7 |
| 20260507061534 | 75 | 180 | 4.0 | 8.0 | 0.00 | 0.00 | 0.00 | 52 | 1016.7 |
| 20260507061031 | 75 | 202 | 2.0 | 6.0 | 0.00 | 0.00 | 0.00 | 52 | 1016.7 |
| 20260507060529 | 75 | 180 | 1.0 | 9.0 | 0.00 | 0.00 | 0.00 | 52 | 1016.5 |
| 20260507060027 | 75 | 180 | 8.0 | 9.0 | 0.00 | 0.00 | 0.00 | 52 | 1016.5 |
| 20260507055526 | 76 | 180 | 2.0 | 8.0 | 0.00 | 0.00 | 0.00 | 51 | 1016.5 |
| 20260507055022 | 76 | 180 | 2.0 | 6.0 | 0.00 | 0.00 | 0.00 | 51 | 1016.4 |
| 20260507054520 | 76 | 180 | 1.0 | 6.0 | 0.00 | 0.00 | 0.00 | 51 | 1016.4 |
| 20260507054020 | 76 | 202 | 1.0 | 5.0 | 0.00 | 0.00 | 0.00 | 52 | 1016.4 |
| 20260507053515 | 76 | 180 | 1.0 | 4.0 | 0.00 | 0.00 | 0.00 | 51 | 1016.4 |
| 20260507053013 | 76 | 180 | 1.0 | 4.0 | 0.00 | 0.00 | 0.00 | 51 | 1016.3 |
| 20260507052512 | 76 | 213 | 3.0 | 6.0 | 0.00 | 0.00 | 0.00 | 50 | 1016.3 |
| 20260507052009 | 77 | 180 | 3.0 | 6.0 | 0.00 | 0.00 | 0.00 | 50 | 1016.3 |
| 20260507051506 | 77 | 202 | 4.0 | 5.0 | 0.00 | 0.00 | 0.00 | 50 | 1016.3 |
| 20260507051004 | 77 | 168 | 2.0 | 5.0 | 0.00 | 0.00 | 0.00 | 49 | 1016.3 |
| 20260507050501 | 77 | 180 | 4.0 | 8.0 | 0.00 | 0.00 | 0.00 | 48 | 1016.2 |
| 20260507050001 | 78 | 202 | 3.0 | 8.0 | 0.00 | 0.00 | 0.00 | 47 | 1016.3 |
| 20260507045458 | 78 | 225 | 4.0 | 10.0 | 0.00 | 0.00 | 0.00 | 46 | 1016.1 |
| 20260507044954 | 79 | 191 | 9.0 | 10.0 | 0.00 | 0.00 | 0.00 | 46 | 1016.1 |
| 20260507043954 | 79 | 168 | 8.0 | 8.0 | 0.00 | 0.00 | 0.00 | 44 | 1016.1 |
| 20260507043448 | 78 | 157 | 9.0 | 10.0 | 0.00 | 0.00 | 0.00 | 43 | 1015.9 |
| 20260507042946 | 78 | 135 | 9.0 | 11.0 | 0.00 | 0.00 | 0.00 | 42 | 1015.8 |
| 20260507042446 | 78 | 180 | 6.0 | 14.0 | 0.00 | 0.00 | 0.00 | 42 | 1015.8 |
| 20260507042331 | 78 | 135 | 14.0 | 14.0 | 0.00 | 0.00 | 0.00 | 42 | 1015.8 |
| 20260507042209 | 78 | 135 | 6.0 | 11.0 | 0.00 | 0.00 | 0.00 | 42 | 1015.9 |
| 20260507041708 | 78 | 168 | 8.0 | 8.0 | 0.00 | 0.00 | 0.00 | 41 | 1015.9 |
| 20260507041204 | 78 | 157 | 7.0 | 10.0 | 0.00 | 0.00 | 0.00 | 41 | 1016.0 |
| 20260507040702 | 78 | 135 | 5.0 | 10.0 | 0.00 | 0.00 | 0.00 | 41 | 1015.9 |
| 20260507040200 | 79 | 191 | 6.0 | 13.0 | 0.00 | 0.00 | 0.00 | 41 | 1015.9 |
| 20260507035659 | 79 | 157 | 8.0 | 9.0 | 0.00 | 0.00 | 0.00 | 40 | 1016.0 |
| 20260507035155 | 79 | 180 | 7.0 | 9.0 | 0.00 | 0.00 | 0.00 | 39 | 1015.9 |
| 20260507034653 | 80 | 168 | 9.0 | 10.0 | 0.00 | 0.00 | 0.00 | 39 | 1015.9 |
| 20260507034151 | 80 | 180 | 7.0 | 12.0 | 0.00 | 0.00 | 0.00 | 38 | 1016.0 |
| 20260507033649 | 81 | 135 | 10.0 | 11.0 | 0.00 | 0.00 | 0.00 | 37 | 1015.8 |
| 20260507033146 | 81 | 135 | 10.0 | 12.0 | 0.00 | 0.00 | 0.00 | 37 | 1015.7 |
| 20260507032645 | 81 | 202 | 4.0 | 13.0 | 0.00 | 0.00 | 0.00 | 37 | 1015.8 |
| 20260507032531 | 81 | 180 | 13.0 | 13.0 | 0.00 | 0.00 | 0.00 | 37 | 1015.8 |
| 20260507032329 | 81 | 180 | 4.0 | 6.0 | 0.00 | 0.00 | 0.00 | 38 | 1016.0 |
| 20260507031830 | 81 | 225 | 4.0 | 12.0 | 0.00 | 0.00 | 0.00 | 38 | 1016.0 |
| 20260507031326 | 81 | 157 | 4.0 | 9.0 | 0.00 | 0.00 | 0.00 | 37 | 1016.1 |
| 20260507030824 | 81 | 180 | 5.0 | 10.0 | 0.00 | 0.00 | 0.00 | 37 | 1016.1 |
| 20260507030320 | 81 | 157 | 4.0 | 11.0 | 0.00 | 0.00 | 0.00 | 37 | 1016.1 |
| 20260507025818 | 81 | 135 | 8.0 | 12.0 | 0.00 | 0.00 | 0.00 | 37 | 1016.1 |
| 20260507025318 | 81 | 180 | 13.0 | 13.0 | 0.00 | 0.00 | 0.00 | 36 | 1016.1 |
| 20260507024937 | 81 | 180 | 5.0 | 12.0 | 0.00 | 0.00 | 0.00 | 38 | 1016.3 |
| 20260507024432 | 81 | 135 | 7.0 | 13.0 | 0.00 | 0.00 | 0.00 | 37 | 1016.3 |
| 20260507023930 | 81 | 202 | 8.0 | 13.0 | 0.00 | 0.00 | 0.00 | 37 | 1016.3 |
| 20260507023428 | 81 | 180 | 7.0 | 13.0 | 0.00 | 0.00 | 0.00 | 36 | 1016.5 |
| 20260507022927 | 81 | 180 | 10.0 | 10.0 | 0.00 | 0.00 | 0.00 | 37 | 1016.3 |
| 20260507022752 | 81 | 225 | 2.0 | 10.0 | 0.00 | 0.00 | 0.00 | 37 | 1016.4 |
| 20260507022251 | 80 | 157 | 7.0 | 10.0 | 0.00 | 0.00 | 0.00 | 37 | 1016.4 |
| 20260507021751 | 80 | 180 | 12.0 | 16.0 | 0.00 | 0.00 | 0.00 | 37 | 1016.5 |
| 20260507021247 | 80 | 135 | 12.0 | 14.0 | 0.00 | 0.00 | 0.00 | 37 | 1016.5 |
| 20260507020745 | 80 | 157 | 13.0 | 13.0 | 0.00 | 0.00 | 0.00 | 37 | 1016.5 |
| 20260507020241 | 80 | 157 | 9.0 | 12.0 | 0.00 | 0.00 | 0.00 | 38 | 1016.7 |
| 20260507015739 | 79 | 180 | 6.0 | 13.0 | 0.00 | 0.00 | 0.00 | 39 | 1016.9 |
| 20260507015236 | 79 | 180 | 6.0 | 15.0 | 0.00 | 0.00 | 0.00 | 39 | 1016.8 |
| 20260507014955 | 79 | 180 | 15.0 | 15.0 | 0.00 | 0.00 | 0.00 | 39 | 1016.8 |
| 20260507014453 | 78 | 191 | 7.0 | 13.0 | 0.00 | 0.00 | 0.00 | 39 | 1017.1 |
| 20260507013949 | 78 | 180 | 6.0 | 12.0 | 0.00 | 0.00 | 0.00 | 39 | 1017.1 |
| 20260507013449 | 78 | 135 | 9.0 | 12.0 | 0.00 | 0.00 | 0.00 | 39 | 1017.1 |
| 20260507012945 | 78 | 135 | 7.0 | 16.0 | 0.00 | 0.00 | 0.00 | 39 | 1017.1 |
| 20260507012446 | 77 | 135 | 9.0 | 15.0 | 0.00 | 0.00 | 0.00 | 40 | 1017.3 |
| 20260507011943 | 77 | 168 | 10.0 | 15.0 | 0.00 | 0.00 | 0.00 | 40 | 1017.4 |
| 20260507011440 | 76 | 135 | 13.0 | 20.0 | 0.00 | 0.00 | 0.00 | 40 | 1017.5 |
| 20260507010935 | 76 | 168 | 13.0 | 18.0 | 0.00 | 0.00 | 0.00 | 40 | 1017.4 |
| 20260507010434 | 76 | 135 | 13.0 | 16.0 | 0.00 | 0.00 | 0.00 | 40 | 1017.5 |
| 20260507005933 | 76 | 180 | 11.0 | 15.0 | 0.00 | 0.00 | 0.00 | 41 | 1017.8 |
| 20260507005430 | 75 | 180 | 9.0 | 16.0 | 0.00 | 0.00 | 0.00 | 40 | 1017.7 |
| 20260507004926 | 75 | 168 | 11.0 | 16.0 | 0.00 | 0.00 | 0.00 | 40 | 1017.8 |
| 20260507004424 | 75 | 135 | 16.0 | 16.0 | 0.00 | 0.00 | 0.00 | 40 | 1017.8 |
| 20260507003924 | 75 | 168 | 10.0 | 17.0 | 0.00 | 0.00 | 0.00 | 41 | 1017.7 |
| 20260507003423 | 75 | 168 | 13.0 | 13.0 | 0.00 | 0.00 | 0.00 | 41 | 1017.9 |
| 20260507002919 | 75 | 180 | 7.0 | 15.0 | 0.00 | 0.00 | 0.00 | 41 | 1017.9 |
| 20260507002659 | 75 | 135 | 15.0 | 15.0 | 0.00 | 0.00 | 0.00 | 40 | 1017.8 |
| 20260507002204 | 75 | 180 | 6.0 | 16.0 | 0.00 | 0.00 | 0.00 | 41 | 1018.0 |
| 20260507001912 | 75 | 135 | 15.0 | 16.0 | 0.00 | 0.00 | 0.00 | 40 | 1017.9 |
| 20260507001410 | 75 | 146 | 15.0 | 16.0 | 0.00 | 0.00 | 0.00 | 40 | 1017.8 |
| 20260507000909 | 75 | 135 | 15.0 | 15.0 | 0.00 | 0.00 | 0.00 | 41 | 1018.1 |
| 20260507000615 | 75 | 180 | 7.0 | 15.0 | 0.00 | 0.00 | 0.00 | 42 | 1018.2 |
| 20260507000234 | 75 | 146 | 16.0 | 17.0 | 0.00 | 0.00 | 0.00 | 42 | 1018.1 |
| 20260506235732 | 75 | 180 | 13.0 | 15.0 | 0.00 | 0.00 | 0.00 | 43 | 1018.2 |
| 20260506235229 | 74 | 135 | 13.0 | 17.0 | 0.00 | 0.00 | 0.00 | 45 | 1018.1 |
| 20260506234725 | 73 | 135 | 14.0 | 14.0 | 0.00 | 0.00 | 0.00 | 47 | 1018.3 |
| 20260506234224 | 72 | 135 | 10.0 | 16.0 | 0.00 | 0.00 | 0.00 | 48 | 1018.3 |
| 20260506233721 | 72 | 135 | 12.0 | 14.0 | 0.00 | 0.00 | 0.00 | 48 | 1018.2 |
| 20260506233219 | 71 | 135 | 14.0 | 16.0 | 0.00 | 0.00 | 0.00 | 48 | 1018.1 |
| 20260506232715 | 71 | 135 | 13.0 | 15.0 | 0.00 | 0.00 | 0.00 | 48 | 1018.2 |
| 20260506232213 | 70 | 135 | 9.0 | 15.0 | 0.00 | 0.00 | 0.00 | 49 | 1018.2 |
| 20260506231711 | 70 | 135 | 8.0 | 11.0 | 0.00 | 0.00 | 0.00 | 49 | 1018.2 |
| 20260506231210 | 70 | 157 | 10.0 | 12.0 | 0.00 | 0.00 | 0.00 | 49 | 1018.3 |
| 20260506230707 | 70 | 135 | 10.0 | 14.0 | 0.00 | 0.00 | 0.00 | 49 | 1018.2 |
| 20260506230206 | 70 | 146 | 8.0 | 10.0 | 0.00 | 0.00 | 0.00 | 50 | 1018.2 |
| 20260506225702 | 69 | 135 | 9.0 | 11.0 | 0.00 | 0.00 | 0.00 | 50 | 1018.0 |
| 20260506225200 | 69 | 146 | 7.0 | 15.0 | 0.00 | 0.00 | 0.00 | 50 | 1017.9 |
| 20260506224820 | 69 | 135 | 15.0 | 15.0 | 0.00 | 0.00 | 0.00 | 49 | 1017.9 |
| 20260506224326 | 69 | 135 | 7.0 | 15.0 | 0.00 | 0.00 | 0.00 | 50 | 1017.9 |
| 20260506223743 | 69 | 168 | 7.0 | 12.0 | 0.00 | 0.00 | 0.00 | 50 | 1017.9 |
| 20260506223242 | 69 | 157 | 11.0 | 13.0 | 0.00 | 0.00 | 0.00 | 50 | 1017.8 |
| 20260506222739 | 69 | 135 | 10.0 | 11.0 | 0.00 | 0.00 | 0.00 | 50 | 1017.7 |
| 20260506222236 | 69 | 180 | 12.0 | 15.0 | 0.00 | 0.00 | 0.00 | 49 | 1017.5 |
| 20260506221227 | 69 | 157 | 14.0 | 14.0 | 0.00 | 0.00 | 0.00 | 50 | 1017.6 |
| 20260506221056 | 69 | 180 | 6.0 | 13.0 | 0.00 | 0.00 | 0.00 | 52 | 1017.7 |
| 20260506220553 | 69 | 157 | 11.0 | 13.0 | 0.00 | 0.00 | 0.00 | 52 | 1017.8 |
| 20260506220052 | 69 | 180 | 9.0 | 13.0 | 0.00 | 0.00 | 0.00 | 54 | 1017.8 |
| 20260506215547 | 68 | 157 | 12.0 | 12.0 | 0.00 | 0.00 | 0.00 | 56 | 1017.8 |
| 20260506215045 | 68 | 157 | 10.0 | 10.0 | 0.00 | 0.00 | 0.00 | 58 | 1017.6 |
| 20260506214543 | 68 | 146 | 9.0 | 10.0 | 0.00 | 0.00 | 0.00 | 58 | 1017.6 |
| 20260506214040 | 67 | 135 | 7.0 | 11.0 | 0.00 | 0.00 | 0.00 | 60 | 1017.5 |
| 20260506213538 | 67 | 135 | 5.0 | 7.0 | 0.00 | 0.00 | 0.00 | 61 | 1017.5 |
| 20260506213036 | 67 | 157 | 3.0 | 6.0 | 0.00 | 0.00 | 0.00 | 62 | 1017.6 |
| 20260506212535 | 67 | 157 | 4.0 | 6.0 | 0.00 | 0.00 | 0.00 | 62 | 1017.6 |
| 20260506212031 | 66 | 157 | 2.0 | 5.0 | 0.00 | 0.00 | 0.00 | 64 | 1017.5 |
| 20260506211528 | 66 | 180 | 4.0 | 6.0 | 0.00 | 0.00 | 0.00 | 64 | 1017.6 |
| 20260506211026 | 66 | 180 | 4.0 | 6.0 | 0.00 | 0.00 | 0.00 | 65 | 1017.6 |
| 20260506210524 | 65 | 157 | 5.0 | 6.0 | 0.00 | 0.00 | 0.00 | 66 | 1017.3 |
| 20260506210022 | 65 | 135 | 4.0 | 8.0 | 0.00 | 0.00 | 0.00 | 66 | 1017.5 |
| 20260506205520 | 65 | 180 | 4.0 | 6.0 | 0.00 | 0.00 | 0.00 | 67 | 1017.4 |
| 20260506205018 | 65 | 135 | 5.0 | 7.0 | 0.00 | 0.00 | 0.00 | 68 | 1017.5 |
| 20260506204515 | 65 | 157 | 3.0 | 6.0 | 0.00 | 0.00 | 0.00 | 69 | 1017.6 |
| 20260506204013 | 65 | 180 | 5.0 | 5.0 | 0.00 | 0.00 | 0.00 | 71 | 1017.5 |
| 20260506203511 | 65 | 168 | 5.0 | 5.0 | 0.00 | 0.00 | 0.00 | 71 | 1017.5 |
| 20260506203008 | 65 | 180 | 5.0 | 5.0 | 0.00 | 0.00 | 0.00 | 72 | 1017.3 |
| 20260506202505 | 65 | 146 | 4.0 | 5.0 | 0.00 | 0.00 | 0.00 | 73 | 1017.3 |
| 20260506202003 | 65 | 180 | 3.0 | 5.0 | 0.00 | 0.00 | 0.00 | 74 | 1017.3 |
| 20260506201501 | 65 | 180 | 4.0 | 5.0 | 0.00 | 0.00 | 0.00 | 74 | 1017.2 |
| 20260506200959 | 65 | 180 | 3.0 | 5.0 | 0.00 | 0.00 | 0.00 | 75 | 1017.0 |
| 20260506200457 | 65 | 157 | 3.0 | 4.0 | 0.00 | 0.00 | 0.00 | 75 | 1017.2 |
| 20260506195955 | 65 | 180 | 2.0 | 3.0 | 0.00 | 0.00 | 0.00 | 75 | 1017.4 |
| 20260506195452 | 65 | 180 | 1.0 | 3.0 | 0.00 | 0.00 | 0.00 | 76 | 1017.1 |
| 20260506194950 | 65 | 157 | 4.0 | 4.0 | 0.00 | 0.00 | 0.00 | 76 | 1016.9 |
| 20260506194448 | 66 | 135 | 4.0 | 5.0 | 0.00 | 0.00 | 0.00 | 76 | 1016.7 |
| 20260506193945 | 66 | 180 | 2.0 | 4.0 | 0.00 | 0.00 | 0.00 | 76 | 1017.0 |
| 20260506193443 | 66 | 180 | 5.0 | 5.0 | 0.00 | 0.00 | 0.00 | 77 | 1017.0 |
| 20260506192940 | 66 | 168 | 4.0 | 5.0 | 0.00 | 0.00 | 0.00 | 77 | 1016.9 |
| 20260506192554 | 65 | 180 | 5.0 | 6.0 | 0.00 | 0.00 | 0.00 | 77 | 1016.9 |
| 20260506191936 | 65 | 157 | 4.0 | 5.0 | 0.00 | 0.00 | 0.00 | 78 | 1017.2 |
| 20260506191434 | 65 | 180 | 6.0 | 6.0 | 0.00 | 0.00 | 0.00 | 78 | 1017.1 |
| 20260506190932 | 65 | 168 | 4.0 | 5.0 | 0.00 | 0.00 | 0.00 | 79 | 1016.9 |
| 20260506185924 | 65 | 180 | 3.0 | 3.0 | 0.00 | 0.00 | 0.00 | 79 | 1017.0 |
| 20260506185422 | 65 | 180 | 3.0 | 3.0 | 0.00 | 0.00 | 0.00 | 79 | 1017.1 |
| 20260506184919 | 65 | 180 | 2.0 | 3.0 | 0.00 | 0.00 | 0.00 | 79 | 1017.0 |
| 20260506184418 | 65 | 180 | 2.0 | 3.0 | 0.00 | 0.00 | 0.00 | 79 | 1017.0 |
| 20260506183915 | 65 | 180 | 2.0 | 3.0 | 0.00 | 0.00 | 0.00 | 79 | 1017.0 |
| 20260506183412 | 65 | 180 | 3.0 | 4.0 | 0.00 | 0.00 | 0.00 | 79 | 1016.9 |
| 20260506182910 | 65 | 180 | 3.0 | 4.0 | 0.00 | 0.00 | 0.00 | 79 | 1016.9 |
| 20260506182408 | 65 | 180 | 2.0 | 4.0 | 0.00 | 0.00 | 0.00 | 79 | 1016.9 |
| 20260506181906 | 65 | 157 | 2.0 | 3.0 | 0.00 | 0.00 | 0.00 | 78 | 1016.9 |
| 20260506181404 | 66 | 180 | 2.0 | 3.0 | 0.00 | 0.00 | 0.00 | 78 | 1016.7 |
| 20260506180901 | 66 | 168 | 2.0 | 3.0 | 0.00 | 0.00 | 0.00 | 78 | 1016.8 |